Location: ????????
(41.2031°N, 22.5756°E)
Time: 15:13:29
(UTC+00:00)

Cosmos 1151 Rocket - Pass Details

Date: 01 December 2020
Orbit: 593 x 614 km, 82.5° (Epoch: 21 January)

Event Time Altitude Azimuth Distance (km) Brightness Sun altitude
Rises 15:27:39 0° 172° (S) 2,831 6.7 -5.2°
Reaches altitude 10° 15:29:55 10° 166° (SSE) 1,931 5.7 -5.6°
Maximum altitude 15:33:59 46° 93° (E) 810 3.3 -6.3°
Drops below altitude 10° 15:38:04 10° 20° (NNE) 1,937 5.2 -7.0°
Sets 15:40:20 0° 15° (NNE) 2,842 6.1 -7.4°
